{"data":{"norad_id":67477,"intl_designator":"2026-010B","name":"TIANQI-38","alt_names":[],"object_type":"PAYLOAD","status":"ACTIVE","operator":null,"country":"PRC","launch_date":"2026-01-15","launch_site_code":"YSLA","launch_vehicle":null,"mission":null,"orbit_class":"UNKNOWN","rcs_meters":null,"size_class":null,"mass_kg":null,"dimensions":null,"purposes":[],"wikipedia_slug":null,"has_3d_model":false,"image_url":null,"decayed_at":null,"tle_current":{"epoch":"2026-05-24T12:34:06.213792Z","epoch_age_seconds":112104,"freshness":"FRESH","line1":"1 67477U 26010B   26144.52368303 -.00000013  00000+0  78968-4 0  9993","line2":"2 67477  44.9766 186.8049 0011798 226.0735 133.9125 13.99154023 18084","mean_motion":13.99154023,"eccentricity":0.0011798,"inclination_deg":44.9766,"raan_deg":186.8049,"arg_perigee_deg":226.0735,"mean_anomaly_deg":133.9125,"bstar":7.8968e-5,"rev_number":1808,"period_min":102.91933384949,"perigee_km":888.14320332616,"apogee_km":905.30897026576,"semimajor_km":7274.863086796,"source":"CELESTRAK","updated_at":"2026-05-25T13:38:07.036772Z"}}}